[[{"header":{"parameterUnit":"m.s-1","parameterCategory":1,"la1":30.2991,"la2":30.254,"lo1":-89.0895,"lo2":-89.0444,"dy":0.0017,"dx":0.0017,"nx":28,"ny":28,"refTime":"2025-07-23T21:00:00:Z","depth":0,"parameterNumber":2,"parameterNumberName":"U-component_of_WINDS"},"data":[0,0,0,0,0,0,0,0,0,0,0,0,0,0,0,0,0,0,0,0,0,0,0,0,0,0,0,0,0,0,0,0,0,0,0,0,0,0,0,0,0,0,0,0,0,0,0,0,0,0,0,0,0,0,0,0,0,0,0.7024,0.7024,0,0.7021,0.7021,0.7021,0.6982,0.6981,0.698,0.6979,0.6976,0.6977,0.6978,0,0,0,0,0,0,0,0,0,0,0,0,0,0.6999,0.7,0.7024,0.7024,0.7024,0.7021,0.7021,0.702,0.6982,0.6981,0.698,0.6979,0.6976,0.6977,0.6978,0,0,0,0,0,0,0,0,0,0,0,0,0,0.7004,0.7,0.7024,0.7004,0.7003,0.7021,0.7021,0.702,0.6982,0.6981,0.6979,0.6978,0.6976,0.6977,0.6978,0.7015,0,0,0.6982,0.6983,0,0,0,0,0,0,0,0,0.7004,0.7005,0.7007,0.7006,0.7004,0.7,0.7011,0.7019,0.6983,0.699,0.6979,0.6977,0.6986,0.6986,0.6989,0.7015,0.7015,0.6982,0.6983,0.6984,0.6984,0,0,0,0,0,0,0,0.7004,0.7005,0.7023,0.7007,0.7005,0.6996,0.6995,0.7012,0.6996,0.6989,0.6986,0.6987,0.6984,0.6987,0.6988,0.7015,0.6982,0.6983,0.6984,0.6985,0.7073,0.7075,0,0,0,0,0,0,0.7006,0.7005,0.7023,0.7023,0.7,0.6998,0.6997,0.7003,0.6996,0.6993,0.6988,0.6985,0.6986,0.6987,0.6988,0.7032,0.6984,0.6985,0.6986,0.7072,0.7074,0.7075,0,0,0,0,0,0,0.7006,0.7008,0.7023,0.7013,0.7014,0.7,0.7007,0.7004,0.7007,0.6995,0.6992,0.6994,0.6985,0.6986,0.7009,0.7031,0.6985,0.6987,0.707,0.7072,0.7075,0.712,0,0,0,0,0,0,0.7005,0.7008,0.7022,0.7014,0.7015,0.7044,0.7008,0.7005,0.7009,0.7005,0.6999,0.6997,0.6984,0.7007,0.701,0.7032,0.6987,0.7068,0.7071,0.7074,0.7116,0.7123,0.7129,0,0,0,0,0,0.7004,0.7034,0.7022,0.7025,0.7032,0.7045,0.7046,0.703,0.7011,0.7024,0.7017,0.6997,0.7028,0.701,0.7013,0.7036,0.7066,0.707,0.7074,0.7113,0.7122,0.7129,0,0,0,0,0,0,0.7045,0.7033,0.702,0.7048,0.7048,0.7039,0.7055,0.7039,0.7045,0.7041,0.7021,0.702,0.7046,0.7043,0.7023,0.7072,0.7044,0.7048,0.7073,0.7081,0.7088,0.7088,0.6989,0,0,0,0,0,0.7058,0.7069,0.7058,0.7084,0.7085,0.707,0.7075,0.7063,0.7062,0.7062,0.7056,0.7057,0.7067,0.7073,0.7082,0.7115,0.7114,0.7132,0.7139,0.7144,0.7149,0.7167,0.7176,0.7087,0.7087,0.7087,0,0,0.7083,0.7078,0.7086,0.7092,0.709,0.7104,0.707,0.7085,0.7095,0.7064,0.7086,0.7082,0.7081,0.711,0.7122,0.7108,0.7173,0.7149,0.7153,0.7155,0.7172,0.718,0.7188,0.709,0.7089,0.7089,0,0,0.7137,0.7133,0.7155,0.7155,0.7153,0.7143,0.7148,0.7142,0.7138,0.7159,0.7136,0.7148,0.7165,0.7166,0.7168,0.7223,0.7206,0.7226,0.7262,0.728,0.7287,0.7293,0.7314,0.7321,0.7231,0.7231,0.7231,0,0.7169,0.7187,0.7169,0.7186,0.7189,0.7162,0.7184,0.7185,0.7186,0.7189,0.7173,0.7195,0.7192,0.7221,0.7235,0.7237,0.7244,0.7227,0.7287,0.7293,0.7299,0.7318,0.7326,0.7233,0.7233,0.7233,0.7232,0,0.7228,0.7241,0.7259,0.7261,0.7266,0.7286,0.7271,0.7279,0.7266,0.7259,0.7281,0.7277,0.7285,0.729,0.7278,0.7318,0.731,0.7291,0.7263,0.731,0.7328,0.7336,0.7237,0.7236,0.7235,0.7235,0,0,0.7307,0.7299,0.7306,0.7307,0.7303,0.7313,0.7332,0.7339,0.7347,0.7349,0.7365,0.7381,0.7363,0.7367,0.7354,0.737,0.7415,0.7349,0.7349,0.7363,0.7461,0.7476,0.7485,0.7403,0.7405,0.7406,0.7462,0,0.736,0.7391,0.7375,0.7409,0.7422,0.7396,0.7413,0.7413,0.7406,0.7416,0.7409,0.7421,0.7397,0.7399,0.7413,0.7407,0.7435,0.7402,0.7419,0.742,0.7421,0.7494,0.751,0.7563,0.7468,0.747,0.747,0,0.7425,0.743,0.7465,0.746,0.7465,0.748,0.7486,0.7496,0.7496,0.749,0.7494,0.7478,0.7497,0.7468,0.7495,0.7473,0.7479,0.7477,0.7478,0.748,0.7449,0.7499,0.7579,0.7588,0.7481,0.748,0.7479,0,0.7481,0.7497,0.752,0.7521,0.7516,0.7527,0.7525,0.7524,0.7529,0.7535,0.7538,0.7546,0.755,0.7557,0.7544,0.7524,0.7573,0.7543,0.7569,0.757,0.7581,0.7581,0.7665,0.7583,0.7583,0.7583,0.7583,0,0.7543,0.7565,0.7545,0.756,0.7585,0.7567,0.7592,0.7588,0.7586,0.76,0.7578,0.7592,0.7573,0.7585,0.7574,0.7599,0.76,0.7597,0.7594,0.76,0.76,0.7604,0.7601,0.7585,0.7585,0.7584,0.7584,0,0.761,0.7597,0.7621,0.7614,0.7612,0.7631,0.7625,0.7639,0.7631,0.7649,0.7652,0.764,0.7653,0.764,0.7652,0.7645,0.7678,0.7669,0.7678,0.7676,0.7704,0.7702,0.7794,0.7805,0.7716,0.7717,0.7717,0,0.765,0.7667,0.7662,0.7669,0.7669,0.7681,0.7687,0.767,0.7677,0.7679,0.7692,0.7703,0.7711,0.7733,0.7726,0.7735,0.7727,0.7759,0.7729,0.7734,0.773,0.7729,0.7731,0.7765,0.7767,0.7767,0.7768,0,0.7724,0.7717,0.7726,0.7733,0.7741,0.7746,0.7749,0.7756,0.7739,0.7748,0.7761,0.7767,0.778,0.7791,0.7799,0.7797,0.7781,0.7777,0.7784,0.7791,0.7796,0.7795,0.7696,0.7776,0.7775,0.7774,0.7774,0.7774,0.778,0.7794,0.7793,0.7804,0.7805,0.7808,0.7821,0.7815,0.7825,0.7834,0.7823,0.784,0.784,0.7848,0.7849,0.7862,0.7848,0.7858,0.7861,0.7864,0.7869,0.7793,0.7863,0.7863,0.7862,0.7862,0.7862,0,0.7853,0.7851,0.7862,0.7867,0.7876,0.7859,0.7862,0.7871,0.7885,0.7887,0.7895,0.7911,0.7922,0.7916,0.7926,0.7937,0.793,0.7941,0.794,0.7941,0.7879,0.7873,0.7947,0.7947,0.7947,0.7947,0.7947,0.7947,0.7892,0.7916,0.7909,0.7934,0.7932,0.7947,0.7951,0.7955,0.7956,0.7974,0.7983,0.7979,0.7978,0.7988,0.7998,0.7995,0.8001,0.8015,0.801,0.7953,0.7945,0.7937,0.7931,0.8016,0.8016,0.8071,0.8071,0.8071]},{"header":{"parameterUnit":"m.s-1","parameterCategory":1,"la1":30.2991,"la2":30.254,"lo1":-89.0895,"lo2":-89.0444,"dy":0.0017,"dx":0.0017,"nx":28,"ny":28,"refTime":"2025-07-23T21:00:00:Z","depth":0,"parameterNumber":3,"parameterNumberName":"V-component_of_WINDS"},"data":[0,0,0,0,0,0,0,0,0,0,0,0,0,0,0,0,0,0,0,0,0,0,0,0,0,0,0,0,0,0,0,0,0,0,0,0,0,0,0,0,0,0,0,0,0,0,0,0,0,0,0,0,0,0,0,0,0,0,-2.761,-2.7611,0,-2.7629,-2.7629,-2.7629,-2.7611,-2.7611,-2.761,-2.7609,-2.7627,-2.7628,-2.7629,0,0,0,0,0,0,0,0,0,0,0,0,0,-2.7561,-2.7562,-2.761,-2.7611,-2.7611,-2.7629,-2.7629,-2.7629,-2.7611,-2.7611,-2.761,-2.7609,-2.7626,-2.7628,-2.7629,0,0,0,0,0,0,0,0,0,0,0,0,0,-2.7581,-2.7563,-2.761,-2.7604,-2.7604,-2.7628,-2.7629,-2.7629,-2.7612,-2.7611,-2.761,-2.7609,-2.7626,-2.7628,-2.7629,-2.766,0,0,-2.7634,-2.7635,0,0,0,0,0,0,0,0,-2.758,-2.7583,-2.7605,-2.7605,-2.7604,-2.7617,-2.7618,-2.764,-2.7612,-2.7609,-2.7609,-2.7608,-2.7624,-2.7626,-2.7632,-2.7661,-2.7662,-2.7635,-2.7636,-2.7636,-2.7637,0,0,0,0,0,0,0,-2.7579,-2.7582,-2.7618,-2.7605,-2.7605,-2.7601,-2.7603,-2.7622,-2.7622,-2.7609,-2.7608,-2.761,-2.7624,-2.763,-2.7632,-2.7662,-2.7634,-2.7636,-2.7637,-2.7638,-2.7721,-2.7722,0,0,0,0,0,0,-2.7578,-2.7581,-2.7617,-2.7618,-2.759,-2.7603,-2.7604,-2.7614,-2.7622,-2.7622,-2.7611,-2.7609,-2.7628,-2.763,-2.7632,-2.7672,-2.7636,-2.7638,-2.7639,-2.772,-2.7722,-2.7723,0,0,0,0,0,0,-2.7577,-2.7581,-2.7616,-2.7599,-2.7604,-2.7605,-2.7615,-2.7615,-2.7621,-2.7623,-2.7623,-2.7617,-2.7627,-2.763,-2.7654,-2.7672,-2.7639,-2.764,-2.7719,-2.7721,-2.7722,-2.7749,0,0,0,0,0,0,-2.7576,-2.7581,-2.7593,-2.76,-2.7604,-2.7638,-2.7616,-2.7616,-2.7624,-2.7622,-2.7629,-2.7629,-2.7626,-2.7652,-2.7656,-2.7674,-2.7641,-2.7717,-2.7719,-2.7722,-2.7747,-2.7752,-2.7756,0,0,0,0,0,-2.7574,-2.7599,-2.7594,-2.7598,-2.7619,-2.7639,-2.7641,-2.7638,-2.7625,-2.7637,-2.7639,-2.7629,-2.7669,-2.7655,-2.7659,-2.7677,-2.7716,-2.7719,-2.7721,-2.7745,-2.7751,-2.7756,0,0,0,0,0,0,-2.7593,-2.76,-2.7594,-2.7621,-2.763,-2.7636,-2.7651,-2.7644,-2.7655,-2.7653,-2.7647,-2.7649,-2.7676,-2.7678,-2.7662,-2.7709,-2.7691,-2.7694,-2.7707,-2.7712,-2.7717,-2.7716,-2.7643,0,0,0,0,0,-2.76,-2.7616,-2.7621,-2.7645,-2.7649,-2.765,-2.7658,-2.7655,-2.7663,-2.7666,-2.767,-2.7678,-2.7693,-2.7702,-2.7716,-2.7747,-2.7749,-2.7762,-2.7766,-2.777,-2.7774,-2.7793,-2.7799,-2.7732,-2.7732,-2.7732,0,0,-2.7616,-2.7621,-2.7631,-2.7649,-2.7655,-2.7672,-2.7653,-2.767,-2.7683,-2.7669,-2.7693,-2.7696,-2.7705,-2.7733,-2.7746,-2.7737,-2.7793,-2.7773,-2.7776,-2.7778,-2.7796,-2.7803,-2.7808,-2.7734,-2.7733,-2.7733,0,0,-2.7653,-2.7658,-2.768,-2.7687,-2.7697,-2.7697,-2.7703,-2.771,-2.7712,-2.7736,-2.7726,-2.7741,-2.7766,-2.7773,-2.7781,-2.7823,-2.7815,-2.7827,-2.7852,-2.7871,-2.7876,-2.7881,-2.7898,-2.7904,-2.7831,-2.7831,-2.7831,0,-2.7671,-2.7696,-2.7692,-2.7712,-2.7721,-2.7709,-2.7732,-2.7738,-2.7752,-2.7759,-2.7748,-2.7781,-2.7786,-2.7817,-2.7828,-2.7833,-2.784,-2.7827,-2.7876,-2.788,-2.7885,-2.7901,-2.7908,-2.7833,-2.7832,-2.7832,-2.7832,0,-2.7719,-2.7737,-2.7753,-2.7768,-2.7779,-2.78,-2.7799,-2.781,-2.7806,-2.7808,-2.7834,-2.784,-2.7855,-2.7862,-2.7857,-2.7894,-2.7888,-2.7876,-2.7858,-2.7893,-2.7909,-2.7915,-2.7835,-2.7834,-2.7834,-2.7833,0,0,-2.7768,-2.7782,-2.7788,-2.7796,-2.7807,-2.7821,-2.7842,-2.7858,-2.7869,-2.7879,-2.7898,-2.792,-2.791,-2.7918,-2.7915,-2.7931,-2.7968,-2.7918,-2.7918,-2.7929,-2.801,-2.802,-2.8028,-2.7962,-2.7963,-2.7964,-2.801,0,-2.7808,-2.7845,-2.7843,-2.7878,-2.7896,-2.7886,-2.7905,-2.7914,-2.7916,-2.7932,-2.7934,-2.7951,-2.7936,-2.7941,-2.7956,-2.796,-2.7984,-2.7956,-2.798,-2.7981,-2.798,-2.8035,-2.8045,-2.8089,-2.8016,-2.8017,-2.8018,0,-2.7858,-2.7872,-2.791,-2.7921,-2.7928,-2.7945,-2.7961,-2.7975,-2.7986,-2.7987,-2.7997,-2.7992,-2.8014,-2.7994,-2.8026,-2.8007,-2.8017,-2.802,-2.8021,-2.8025,-2.8003,-2.8042,-2.8103,-2.811,-2.8027,-2.8026,-2.8026,0,-2.7894,-2.7921,-2.7948,-2.7955,-2.7967,-2.798,-2.7986,-2.7996,-2.8006,-2.802,-2.8027,-2.8043,-2.8052,-2.8065,-2.8064,-2.8049,-2.8097,-2.8076,-2.8099,-2.81,-2.8111,-2.8111,-2.8176,-2.8114,-2.8114,-2.8114,-2.8114,0,-2.7939,-2.7963,-2.7965,-2.7981,-2.8009,-2.8006,-2.8033,-2.8037,-2.8046,-2.8064,-2.8056,-2.8073,-2.807,-2.8087,-2.8086,-2.8114,-2.8118,-2.812,-2.812,-2.8122,-2.8122,-2.8129,-2.8127,-2.8116,-2.8115,-2.8115,-2.8115,0,-2.7983,-2.7985,-2.8014,-2.8025,-2.8028,-2.8048,-2.8057,-2.8073,-2.8075,-2.8098,-2.8103,-2.8107,-2.8127,-2.8127,-2.8149,-2.8149,-2.8184,-2.8179,-2.8181,-2.8181,-2.8205,-2.8204,-2.8279,-2.829,-2.8219,-2.8219,-2.822,0,-2.8013,-2.8032,-2.8045,-2.8057,-2.8064,-2.8083,-2.8094,-2.8092,-2.8105,-2.812,-2.8135,-2.8154,-2.817,-2.8203,-2.8208,-2.8225,-2.8222,-2.8248,-2.8225,-2.8228,-2.8226,-2.8226,-2.8229,-2.8253,-2.8253,-2.8254,-2.8254,0,-2.8067,-2.8067,-2.8084,-2.8103,-2.8117,-2.8131,-2.8144,-2.8154,-2.8154,-2.8168,-2.8189,-2.8202,-2.8226,-2.8246,-2.8264,-2.827,-2.8263,-2.8261,-2.8268,-2.8272,-2.8273,-2.8275,-2.8195,-2.826,-2.8259,-2.8259,-2.8259,-2.8259,-2.8106,-2.8123,-2.8136,-2.8156,-2.8166,-2.8179,-2.8196,-2.8201,-2.8219,-2.8239,-2.8236,-2.8261,-2.8273,-2.8296,-2.8304,-2.8323,-2.8315,-2.8324,-2.8326,-2.8329,-2.8333,-2.8268,-2.8326,-2.8326,-2.8326,-2.8326,-2.8325,0,-2.8161,-2.817,-2.8188,-2.8207,-2.8224,-2.8216,-2.823,-2.8245,-2.8266,-2.8278,-2.8295,-2.832,-2.834,-2.8347,-2.8367,-2.8381,-2.8379,-2.8387,-2.8387,-2.8389,-2.8339,-2.8332,-2.8389,-2.8389,-2.8389,-2.8389,-2.8389,-2.8389,-2.8192,-2.8222,-2.8224,-2.8259,-2.8267,-2.8292,-2.8301,-2.8313,-2.8323,-2.8353,-2.837,-2.8374,-2.8385,-2.8406,-2.8424,-2.8426,-2.8435,-2.8444,-2.8445,-2.8398,-2.8392,-2.8386,-2.838,-2.8446,-2.8446,-2.8494,-2.8494,-2.8495]}]]